Atqasuk Edward Burnell Sr Mem, AK

1:30 PM AKST on November 16, 2019 (GMT -0900)
Atqasuk Edward Burnell Sr Mem

Weather History for PATQ - September, 2019

Change the Weather History Date:

Thursday, September 19, 2019

  Actual Average (WUND) Record (WUND)
Temperature  
Mean Temperature 34 °F -  
Max Temperature 37 °F - - (-1)
Min Temperature 30 °F - - (-1)
Degree Days  
Heating Degree Days 32    
Moisture  
Dew Point 31 °F    
Average Humidity 87    
Maximum Humidity 100    
Minimum Humidity 70    
Precipitation  
Precipitation 0.00 in - - ()
Sea Level Pressure  
Sea Level Pressure 29.61 in    
Wind  
Wind Speed 6 mph (South)    
Max Wind Speed 10 mph    
Max Gust Speed 17 mph    
Visibility 9 miles    
Events      
Averages and records for this station are not official NWS values.
T = Trace of Precipitation, MM = Missing Value Source: NWS Daily Summary

Daily Weather History Graph

Daily Weather History Graph

Search for Another Location

Airport or City:

Astronomy

Sep. 19, 2019 Rise Set
Actual Time 7:57 AM AKDT 8:47 PM AKDT
Civil Twilight 6:53 AM AKDT 9:50 PM AKDT
Nautical Twilight 5:27 AM AKDT 11:14 PM AKDT
Astronomical Twilight 2:34 AM AKDT 1:37 AM AKDT
Moon 8:30 PM AKDT (9/19) 4:38 PM AKDT (9/19)
Length of Visible Light 14h 57m
Length of Day
12h 49m
Waning Gibbous, 73% of the Moon is Illuminated
Sep 19
Waning Gibbous
Sep 21
Last Quarter
Sep 28
New
Oct 5
First Quarter
Oct 13
Full

Hourly Weather History & Observations

Time (AKDT) Temp. Windchill Dew Point Humidity Pressure Visibility Wind Dir Wind Speed Gust Speed Precip Events Conditions
12:56 AM 36.0 °F 32.1 °F 34.0 °F 93% 29.57 in 10.0 mi West 4.6 mph - N/A   Overcast
1:56 AM 36.0 °F 32.1 °F 34.0 °F 93% 29.58 in 10.0 mi West 4.6 mph - N/A   Overcast
2:56 AM 35.1 °F - 34.0 °F 96% 29.59 in 10.0 mi Calm Calm - N/A   Mostly Cloudy
3:08 AM 35.6 °F 32.8 °F 33.8 °F 93% 29.57 in 10.0 mi WSW 3.5 mph - N/A   Scattered Clouds
3:56 AM 34.0 °F 28.8 °F 34.0 °F 100% 29.60 in 10.0 mi SW 5.8 mph - N/A   Overcast
4:56 AM 35.1 °F 32.2 °F 34.0 °F 96% 29.60 in 10.0 mi WSW 3.5 mph - N/A   Overcast
6:56 AM 35.1 °F 32.2 °F 33.1 °F 92% 29.60 in 10.0 mi SSW 3.5 mph - 0.00 in   Overcast
7:08 AM 35.6 °F 32.8 °F 33.8 °F 93% 29.58 in 10.0 mi SW 3.5 mph - N/A   Mostly Cloudy
7:56 AM 34.0 °F 29.8 °F 33.1 °F 96% 29.60 in 10.0 mi SSW 4.6 mph - N/A   Overcast
8:56 AM 34.0 °F 29.8 °F 32.0 °F 92% 29.61 in 10.0 mi SSW 4.6 mph - N/A   Overcast
10:56 AM 35.1 °F 27.9 °F 33.1 °F 92% 29.62 in 1.8 mi WSW 9.2 mph - N/A   Overcast
11:04 AM 35.6 °F 31.7 °F 32.0 °F 87% 29.60 in 1.0 mi SSW 4.6 mph 17.3 mph N/A   Overcast
11:07 AM 35.6 °F 30.7 °F 33.8 °F 93% 29.60 in 2.5 mi SSW 5.8 mph - N/A   Overcast
11:14 AM 35.6 °F 29.9 °F 33.8 °F 93% 29.60 in 9.0 mi SSW 6.9 mph - N/A   Overcast
12:56 PM 36.0 °F 29.6 °F 30.0 °F 79% 29.63 in 10.0 mi SSW 8.1 mph - 0.00 in   Overcast
1:56 PM 36.0 °F 29.0 °F 28.0 °F 73% 29.64 in 10.0 mi South 9.2 mph - 0.00 in   Overcast
2:56 PM 36.0 °F 29.6 °F 28.0 °F 73% 29.64 in 10.0 mi SSE 8.1 mph - N/A   Overcast
3:56 PM 37.0 °F 31.0 °F 28.9 °F 73% 29.65 in 10.0 mi South 8.1 mph - N/A   Overcast
4:56 PM 37.9 °F 30.9 °F 28.9 °F 70% 29.64 in 10.0 mi South 10.4 mph - N/A   Overcast
5:56 PM 37.9 °F 32.7 °F 28.9 °F 70% 29.64 in 10.0 mi SE 6.9 mph - N/A   Mostly Cloudy
6:14 PM 37.4 °F 31.4 °F 28.4 °F 70% 29.61 in 10.0 mi SE 8.1 mph - N/A   Scattered Clouds
6:56 PM 36.0 °F 29.0 °F 30.0 °F 79% 29.64 in 10.0 mi SE 9.2 mph - N/A   Clear
7:56 PM 35.1 °F 27.9 °F 30.0 °F 82% 29.63 in 10.0 mi ESE 9.2 mph - N/A   Scattered Clouds
8:56 PM 32.0 °F 24.2 °F 28.9 °F 88% 29.63 in 10.0 mi ESE 9.2 mph - N/A   Clear
9:56 PM 30.0 °F 21.7 °F 28.0 °F 92% 29.63 in 10.0 mi ESE 9.2 mph - N/A   Clear
10:56 PM 30.0 °F 22.4 °F 28.9 °F 96% 29.64 in 10.0 mi SE 8.1 mph - N/A   Clear
11:56 PM 30.0 °F 21.1 °F 28.9 °F 96% 29.64 in 10.0 mi SE 10.4 mph - N/A   Clear